Year,Month,Day,Hour,Minute,Value (Times are PST for temperature in C)
2013,08,23,00,00,19.20
2013,08,23,00,01,19.30
2013,08,23,00,02,19.30
2013,08,23,00,03,19.30
2013,08,23,00,04,19.30
2013,08,23,00,05,19.30
2013,08,23,00,06,19.20
2013,08,23,00,07,19.20
2013,08,23,00,08,19.20
2013,08,23,00,09,19.20
2013,08,23,00,10,19.20
2013,08,23,00,11,19.20
2013,08,23,00,12,19.20
2013,08,23,00,13,19.20
2013,08,23,00,14,19.20
2013,08,23,00,15,19.20
2013,08,23,00,16,19.20
2013,08,23,00,17,19.20
2013,08,23,00,18,19.20
2013,08,23,00,19,19.20
2013,08,23,00,20,19.20
2013,08,23,00,21,19.20
2013,08,23,00,22,19.20
2013,08,23,00,23,19.20
2013,08,23,00,24,19.20
2013,08,23,00,25,19.10
2013,08,23,00,26,19.10
2013,08,23,00,27,19.00
2013,08,23,00,28,19.00
2013,08,23,00,29,19.00
2013,08,23,00,30,19.00
2013,08,23,00,31,19.00
2013,08,23,00,32,19.10
2013,08,23,00,33,19.10
2013,08,23,00,34,19.10
2013,08,23,00,35,19.10
2013,08,23,00,36,19.10
2013,08,23,00,37,19.10
2013,08,23,00,38,19.10
2013,08,23,00,39,19.00
2013,08,23,00,40,18.90
2013,08,23,00,41,18.90
2013,08,23,00,42,18.80
2013,08,23,00,43,18.80
2013,08,23,00,44,18.70
2013,08,23,00,45,18.60
2013,08,23,00,46,18.60
2013,08,23,00,47,18.50
2013,08,23,00,48,18.40
2013,08,23,00,49,18.40
2013,08,23,00,50,18.40
2013,08,23,00,51,18.40
2013,08,23,00,52,18.40
2013,08,23,00,53,18.50
2013,08,23,00,54,18.60
2013,08,23,00,55,18.60
2013,08,23,00,56,18.70
2013,08,23,00,57,18.80
2013,08,23,00,58,18.90
2013,08,23,00,59,18.90
2013,08,23,01,00,18.90
2013,08,23,01,01,18.90
2013,08,23,01,02,18.90
2013,08,23,01,03,18.90
2013,08,23,01,04,18.80
2013,08,23,01,05,18.80
2013,08,23,01,06,18.70
2013,08,23,01,07,18.60
2013,08,23,01,08,18.60
2013,08,23,01,09,18.60
2013,08,23,01,10,18.60
2013,08,23,01,11,18.50
2013,08,23,01,12,18.40
2013,08,23,01,13,18.30
2013,08,23,01,14,18.20
2013,08,23,01,15,18.20
2013,08,23,01,16,18.10
2013,08,23,01,17,18.00
2013,08,23,01,18,17.90
2013,08,23,01,19,17.80
2013,08,23,01,20,17.70
2013,08,23,01,21,17.70
2013,08,23,01,22,17.70
2013,08,23,01,23,17.60
2013,08,23,01,24,17.60
2013,08,23,01,25,17.60
2013,08,23,01,26,17.60
2013,08,23,01,27,17.70
2013,08,23,01,28,17.80
2013,08,23,01,29,17.90
2013,08,23,01,30,18.00
2013,08,23,01,31,18.00
2013,08,23,01,32,18.10
2013,08,23,01,33,18.20
2013,08,23,01,34,18.20
2013,08,23,01,35,18.20
2013,08,23,01,36,18.20
2013,08,23,01,37,18.20
2013,08,23,01,38,18.20
2013,08,23,01,39,18.20
2013,08,23,01,40,18.20
2013,08,23,01,41,18.20
2013,08,23,01,42,18.20
2013,08,23,01,43,18.20
2013,08,23,01,44,18.20
2013,08,23,01,45,18.30
2013,08,23,01,46,18.40
2013,08,23,01,47,18.50
2013,08,23,01,48,18.50
2013,08,23,01,49,18.60
2013,08,23,01,50,18.60
2013,08,23,01,51,18.70
2013,08,23,01,52,18.70
2013,08,23,01,53,18.70
2013,08,23,01,54,18.70
2013,08,23,01,55,18.60
2013,08,23,01,56,18.60
2013,08,23,01,57,18.60
2013,08,23,01,58,18.60
2013,08,23,01,59,18.60
2013,08,23,02,00,18.60
2013,08,23,02,01,18.60
2013,08,23,02,02,18.60
2013,08,23,02,03,18.60
2013,08,23,02,04,18.60
2013,08,23,02,05,18.60
2013,08,23,02,06,18.60
2013,08,23,02,07,18.60
2013,08,23,02,08,18.50
2013,08,23,02,09,18.50
2013,08,23,02,10,18.40
2013,08,23,02,11,18.40
2013,08,23,02,12,18.30
2013,08,23,02,13,18.30
2013,08,23,02,14,18.20
2013,08,23,02,15,18.20
2013,08,23,02,16,18.10
2013,08,23,02,17,18.00
2013,08,23,02,18,18.00
2013,08,23,02,19,17.90
2013,08,23,02,20,17.80
2013,08,23,02,21,17.80
2013,08,23,02,22,17.80
2013,08,23,02,23,17.80
2013,08,23,02,24,17.80
2013,08,23,02,25,17.80
2013,08,23,02,26,17.70
2013,08,23,02,27,17.70
2013,08,23,02,28,17.70
2013,08,23,02,29,17.60
2013,08,23,02,30,17.60
2013,08,23,02,31,17.60
2013,08,23,02,32,17.60
2013,08,23,02,33,17.60
2013,08,23,02,34,17.50
2013,08,23,02,35,17.50
2013,08,23,02,36,17.50
2013,08,23,02,37,17.50
2013,08,23,02,38,17.50
2013,08,23,02,39,17.60
2013,08,23,02,40,17.60
2013,08,23,02,41,17.60
2013,08,23,02,42,17.60
2013,08,23,02,43,17.60
2013,08,23,02,44,17.60
2013,08,23,02,45,17.50
2013,08,23,02,46,17.50
2013,08,23,02,47,17.50
2013,08,23,02,48,17.40
2013,08,23,02,49,17.40
2013,08,23,02,50,17.40
2013,08,23,02,51,17.30
2013,08,23,02,52,17.30
2013,08,23,02,53,17.30
2013,08,23,02,54,17.30
2013,08,23,02,55,17.30
2013,08,23,02,56,17.20
2013,08,23,02,57,17.20
2013,08,23,02,58,17.10
2013,08,23,02,59,17.10
2013,08,23,03,00,17.00
2013,08,23,03,01,17.00
2013,08,23,03,02,16.90
2013,08,23,03,03,16.90
2013,08,23,03,06,16.60
2013,08,23,03,07,16.50
2013,08,23,03,08,16.50
2013,08,23,03,09,16.50
2013,08,23,03,10,16.40
2013,08,23,03,11,16.40
2013,08,23,03,12,16.40
2013,08,23,03,13,16.40
2013,08,23,03,14,16.40
2013,08,23,03,15,16.40
2013,08,23,03,16,16.30
2013,08,23,03,17,16.30
2013,08,23,03,18,16.30
2013,08,23,03,19,16.30
2013,08,23,03,20,16.20
2013,08,23,03,21,16.20
2013,08,23,03,22,16.20
2013,08,23,03,23,16.20
2013,08,23,03,24,16.20
2013,08,23,03,25,16.20
2013,08,23,03,26,16.20
2013,08,23,03,27,16.20
2013,08,23,03,28,16.30
2013,08,23,03,29,16.40
2013,08,23,03,30,16.40
2013,08,23,03,31,16.50
2013,08,23,03,32,16.60
2013,08,23,03,33,16.60
2013,08,23,03,34,16.60
2013,08,23,03,35,16.60
2013,08,23,03,36,16.60
2013,08,23,03,37,16.60
2013,08,23,03,38,16.60
2013,08,23,03,39,16.60
2013,08,23,03,40,16.60
2013,08,23,03,41,16.60
2013,08,23,03,42,16.70
2013,08,23,03,43,16.70
2013,08,23,03,44,16.70
2013,08,23,03,45,16.70
2013,08,23,03,46,16.60
2013,08,23,03,47,16.60
2013,08,23,03,48,16.60
2013,08,23,03,49,16.50
2013,08,23,03,50,16.50
2013,08,23,03,51,16.50
2013,08,23,03,52,16.50
2013,08,23,03,53,16.60
2013,08,23,03,54,16.60
2013,08,23,03,55,16.60
2013,08,23,03,56,16.70
2013,08,23,03,57,16.80
2013,08,23,03,58,16.80
2013,08,23,03,59,16.80
2013,08,23,04,00,16.90
2013,08,23,04,01,16.90
2013,08,23,04,02,16.90
2013,08,23,04,03,17.00
2013,08,23,04,04,17.00
2013,08,23,04,05,17.00
2013,08,23,04,06,17.10
2013,08,23,04,07,17.00
2013,08,23,04,08,17.00
2013,08,23,04,09,17.00
2013,08,23,04,10,17.00
2013,08,23,04,11,17.00
2013,08,23,04,12,17.00
2013,08,23,04,13,17.00
2013,08,23,04,14,17.00
2013,08,23,04,15,17.00
2013,08,23,04,16,17.00
2013,08,23,04,17,17.00
2013,08,23,04,18,16.90
2013,08,23,04,19,16.90
2013,08,23,04,20,16.90
2013,08,23,04,21,16.80
2013,08,23,04,22,16.80
2013,08,23,04,23,16.70
2013,08,23,04,24,16.60
2013,08,23,04,25,16.50
2013,08,23,04,26,16.40
2013,08,23,04,27,16.30
2013,08,23,04,28,16.20
2013,08,23,04,29,16.20
2013,08,23,04,30,16.10
2013,08,23,04,31,16.10
2013,08,23,04,32,16.00
2013,08,23,04,33,15.90
2013,08,23,04,34,15.90
2013,08,23,04,35,15.80
2013,08,23,04,36,15.80
2013,08,23,04,37,15.80
2013,08,23,04,38,15.70
2013,08,23,04,39,15.70
2013,08,23,04,40,15.70
2013,08,23,04,41,15.70
2013,08,23,04,42,15.70
2013,08,23,04,43,15.70
2013,08,23,04,44,15.70
2013,08,23,04,45,15.70
2013,08,23,04,46,15.70
2013,08,23,04,47,15.70
2013,08,23,04,48,15.60
2013,08,23,04,49,15.60
2013,08,23,04,50,15.60
2013,08,23,04,51,15.60
2013,08,23,04,52,15.60
2013,08,23,04,53,15.60
2013,08,23,04,54,15.60
2013,08,23,04,55,15.60
2013,08,23,04,56,15.60
2013,08,23,04,57,15.60
2013,08,23,04,58,15.60
2013,08,23,04,59,15.60
2013,08,23,05,00,15.60
2013,08,23,05,01,15.60
2013,08,23,05,02,15.60
2013,08,23,05,03,15.70
2013,08,23,05,04,15.70
2013,08,23,05,05,15.70
2013,08,23,05,06,15.60
2013,08,23,05,07,15.60
2013,08,23,05,08,15.50
2013,08,23,05,09,15.50
2013,08,23,05,10,15.50
2013,08,23,05,11,15.50
2013,08,23,05,12,15.50
2013,08,23,05,13,15.50
2013,08,23,05,14,15.50
2013,08,23,05,15,15.40
2013,08,23,05,16,15.40
2013,08,23,05,17,15.40
2013,08,23,05,18,15.30
2013,08,23,05,19,15.30
2013,08,23,05,20,15.30
2013,08,23,05,21,15.30
2013,08,23,05,22,15.20
2013,08,23,05,23,15.20
2013,08,23,05,24,15.30
2013,08,23,05,25,15.30
2013,08,23,05,26,15.30
2013,08,23,05,27,15.30
2013,08,23,05,28,15.40
2013,08,23,05,29,15.40
2013,08,23,05,30,15.50
2013,08,23,05,31,15.60
2013,08,23,05,32,15.60
2013,08,23,05,33,15.60
2013,08,23,05,34,15.60
2013,08,23,05,35,15.60
2013,08,23,05,36,15.70
2013,08,23,05,37,15.70
2013,08,23,05,38,15.70
2013,08,23,05,39,15.70
2013,08,23,05,40,15.70
2013,08,23,05,41,15.70
2013,08,23,05,42,15.70
2013,08,23,05,43,15.70
2013,08,23,05,44,15.70
2013,08,23,05,45,15.70
2013,08,23,05,46,15.70
2013,08,23,05,47,15.70
2013,08,23,05,48,15.70
2013,08,23,05,49,15.70
2013,08,23,05,50,15.70
2013,08,23,05,51,15.70
2013,08,23,05,52,15.70
2013,08,23,05,53,15.70
2013,08,23,05,54,15.70
2013,08,23,05,55,15.70
2013,08,23,05,56,15.60
2013,08,23,05,57,15.70
2013,08,23,05,58,15.70
2013,08,23,05,59,15.70
2013,08,23,06,00,15.70
2013,08,23,06,01,15.70
2013,08,23,06,02,15.70
2013,08,23,06,03,15.70
2013,08,23,06,04,15.60
2013,08,23,06,05,15.60
2013,08,23,06,06,15.60
2013,08,23,06,07,15.60
2013,08,23,06,08,15.50
2013,08,23,06,09,15.50
2013,08,23,06,10,15.50
2013,08,23,06,11,15.40
2013,08,23,06,12,15.40
2013,08,23,06,13,15.40
2013,08,23,06,14,15.40
2013,08,23,06,15,15.30
2013,08,23,06,16,15.30
2013,08,23,06,17,15.30
2013,08,23,06,18,15.20
2013,08,23,06,19,15.20
2013,08,23,06,20,15.20
2013,08,23,06,21,15.10
2013,08,23,06,22,15.10
2013,08,23,06,23,15.10
2013,08,23,06,24,15.00
2013,08,23,06,25,15.00
2013,08,23,06,26,15.00
2013,08,23,06,27,15.00
2013,08,23,06,28,15.00
2013,08,23,06,29,15.00
2013,08,23,06,30,15.00
2013,08,23,06,31,15.00
2013,08,23,06,32,15.00
2013,08,23,06,33,15.00
2013,08,23,06,34,15.00
2013,08,23,06,35,15.00
2013,08,23,06,36,15.00
2013,08,23,06,37,15.00
2013,08,23,06,38,15.00
2013,08,23,06,39,15.00
2013,08,23,06,40,15.00
2013,08,23,06,41,15.00
2013,08,23,06,42,15.00
2013,08,23,06,43,15.00
2013,08,23,06,44,15.00
2013,08,23,06,45,15.00
2013,08,23,06,46,15.00
2013,08,23,06,47,15.00
2013,08,23,06,48,15.00
2013,08,23,06,49,15.00
2013,08,23,06,50,15.00
2013,08,23,06,51,15.00
2013,08,23,06,52,15.00
2013,08,23,06,53,15.00
2013,08,23,06,54,15.00
2013,08,23,06,55,15.00
2013,08,23,06,56,15.00
2013,08,23,06,57,15.00
2013,08,23,06,58,15.00
2013,08,23,06,59,15.00
2013,08,23,07,00,15.00
2013,08,23,07,01,15.00
2013,08,23,07,02,15.00
2013,08,23,07,03,15.00
2013,08,23,07,04,15.00
2013,08,23,07,05,15.00
2013,08,23,07,06,15.00
2013,08,23,07,07,15.00
2013,08,23,07,08,15.00
2013,08,23,07,09,15.00
2013,08,23,07,10,15.00
2013,08,23,07,11,14.90
2013,08,23,07,12,14.90
2013,08,23,07,13,14.90
2013,08,23,07,14,14.90
2013,08,23,07,15,14.90
2013,08,23,07,16,14.80
2013,08,23,07,17,14.80
2013,08,23,07,18,14.80
2013,08,23,07,19,14.80
2013,08,23,07,20,14.80
2013,08,23,07,21,14.80
2013,08,23,07,22,14.80
2013,08,23,07,23,14.80
2013,08,23,07,24,14.80
2013,08,23,07,25,14.70
2013,08,23,07,26,14.70
2013,08,23,07,27,14.70
2013,08,23,07,28,14.70
2013,08,23,07,29,14.70
2013,08,23,07,30,14.70
2013,08,23,07,31,14.70
2013,08,23,07,32,14.70
2013,08,23,07,33,14.70
2013,08,23,07,34,14.70
2013,08,23,07,35,14.70
2013,08,23,07,36,14.70
2013,08,23,07,37,14.70
2013,08,23,07,38,14.70
2013,08,23,07,39,14.80
2013,08,23,07,40,14.80
2013,08,23,07,41,14.80
2013,08,23,07,42,14.80
2013,08,23,07,43,14.80
2013,08,23,07,44,14.80
2013,08,23,07,45,14.80
2013,08,23,07,46,14.80
2013,08,23,07,47,14.80
2013,08,23,07,48,14.80
2013,08,23,07,49,14.80
2013,08,23,07,50,14.80
2013,08,23,07,51,14.80
2013,08,23,07,52,14.80
2013,08,23,07,53,14.80
2013,08,23,07,54,14.80
2013,08,23,07,55,14.80
2013,08,23,07,56,14.80
2013,08,23,07,57,14.70
2013,08,23,07,58,14.70
2013,08,23,07,59,14.70
2013,08,23,08,00,14.70
2013,08,23,08,01,14.70
2013,08,23,08,02,14.70
2013,08,23,08,03,14.70
2013,08,23,08,04,14.70
2013,08,23,08,05,14.70
2013,08,23,08,06,14.70
2013,08,23,08,07,14.80
2013,08,23,08,08,14.80
2013,08,23,08,09,14.80
2013,08,23,08,10,14.80
2013,08,23,08,11,14.90
2013,08,23,08,12,14.90
2013,08,23,08,13,15.00
2013,08,23,08,14,15.00
2013,08,23,08,15,15.00
2013,08,23,08,16,15.00
2013,08,23,08,17,15.00
2013,08,23,08,18,15.00
2013,08,23,08,19,15.00
2013,08,23,08,20,15.10
2013,08,23,08,21,15.20
2013,08,23,08,22,15.20
2013,08,23,08,23,15.20
2013,08,23,08,24,15.30
2013,08,23,08,25,15.30
2013,08,23,08,26,15.40
2013,08,23,08,27,15.40
2013,08,23,08,28,15.40
2013,08,23,08,29,15.50
2013,08,23,08,30,15.50
2013,08,23,08,31,15.60
2013,08,23,08,32,15.60
2013,08,23,08,33,15.70
2013,08,23,08,34,15.70
2013,08,23,08,35,15.70
2013,08,23,08,36,15.70
2013,08,23,08,37,15.70
2013,08,23,08,38,15.70
2013,08,23,08,39,15.70
2013,08,23,08,40,15.70
2013,08,23,08,41,15.70
2013,08,23,08,42,15.70
2013,08,23,08,43,15.70
2013,08,23,08,44,15.70
2013,08,23,08,45,15.80
2013,08,23,08,46,15.80
2013,08,23,08,47,15.80
2013,08,23,08,48,15.90
2013,08,23,08,49,15.90
2013,08,23,08,50,15.90
2013,08,23,08,51,15.90
2013,08,23,08,52,15.80
2013,08,23,08,53,15.80
2013,08,23,08,54,15.80
2013,08,23,08,55,15.70
2013,08,23,08,56,15.70
2013,08,23,08,57,15.70
2013,08,23,08,58,15.70
2013,08,23,08,59,15.70
2013,08,23,09,00,15.70
2013,08,23,09,01,15.70
2013,08,23,09,02,15.80
2013,08,23,09,03,15.80
2013,08,23,09,04,15.80
2013,08,23,09,05,15.90
2013,08,23,09,06,15.90
2013,08,23,09,07,16.00
2013,08,23,09,08,16.00
2013,08,23,09,09,16.00
2013,08,23,09,10,16.00
2013,08,23,09,11,16.00
2013,08,23,09,12,16.10
2013,08,23,09,13,16.10
2013,08,23,09,14,16.20
2013,08,23,09,15,16.20
2013,08,23,09,16,16.30
2013,08,23,09,17,16.30
2013,08,23,09,18,16.30
2013,08,23,09,19,16.30
2013,08,23,09,20,16.30
2013,08,23,09,21,16.30
2013,08,23,09,22,16.40
2013,08,23,09,23,16.40
2013,08,23,09,24,16.50
2013,08,23,09,25,16.60
2013,08,23,09,26,16.70
2013,08,23,09,27,16.90
2013,08,23,09,28,16.90
2013,08,23,09,29,17.00
2013,08,23,09,30,17.10
2013,08,23,09,31,17.20
2013,08,23,09,32,17.20
2013,08,23,09,33,17.20
2013,08,23,09,34,17.30
2013,08,23,09,35,17.30
2013,08,23,09,36,17.40
2013,08,23,09,37,17.50
2013,08,23,09,38,17.50
2013,08,23,09,39,17.50
2013,08,23,09,40,17.50
2013,08,23,09,41,17.50
2013,08,23,09,42,17.50
2013,08,23,09,43,17.50
2013,08,23,09,44,17.50
2013,08,23,09,45,17.50
2013,08,23,09,46,17.50
2013,08,23,09,47,17.60
2013,08,23,09,48,17.60
2013,08,23,09,49,17.70
2013,08,23,09,50,17.70
2013,08,23,09,51,17.80
2013,08,23,09,52,17.80
2013,08,23,09,53,17.80
2013,08,23,09,54,17.80
2013,08,23,09,55,17.80
2013,08,23,09,56,17.90
2013,08,23,09,57,17.90
2013,08,23,09,58,18.00
2013,08,23,09,59,18.00
2013,08,23,10,00,18.10
2013,08,23,10,01,18.10
2013,08,23,10,02,18.10
2013,08,23,10,03,18.20
2013,08,23,10,04,18.30
2013,08,23,10,05,18.30
2013,08,23,10,06,18.40
2013,08,23,10,07,18.40
2013,08,23,10,08,18.40
2013,08,23,10,09,18.40
2013,08,23,10,10,18.50
2013,08,23,10,11,18.50
2013,08,23,10,12,18.50
2013,08,23,10,13,18.40
2013,08,23,10,14,18.30
2013,08,23,10,15,18.20
2013,08,23,10,16,18.20
2013,08,23,10,17,18.20
2013,08,23,10,18,18.20
2013,08,23,10,19,18.30
2013,08,23,10,20,18.40
2013,08,23,10,21,18.50
2013,08,23,10,22,18.60
2013,08,23,10,23,18.70
2013,08,23,10,24,18.70
2013,08,23,10,25,18.60
2013,08,23,10,26,18.60
2013,08,23,10,27,18.50
2013,08,23,10,28,18.60
2013,08,23,10,29,18.60
2013,08,23,10,30,18.60
2013,08,23,10,31,18.60
2013,08,23,10,32,18.60
2013,08,23,10,33,18.60
2013,08,23,10,34,18.70
2013,08,23,10,35,18.70
2013,08,23,10,36,18.80
2013,08,23,10,37,18.80
2013,08,23,10,38,18.80
2013,08,23,10,39,18.80
2013,08,23,10,40,18.90
2013,08,23,10,41,19.00
2013,08,23,10,42,19.10
2013,08,23,10,43,19.10
2013,08,23,10,44,19.10
2013,08,23,10,45,19.20
2013,08,23,10,46,19.20
2013,08,23,10,47,19.30
2013,08,23,10,48,19.40
2013,08,23,10,49,19.60
2013,08,23,10,50,19.70
2013,08,23,10,51,19.90
2013,08,23,10,52,20.00
2013,08,23,10,53,20.10
2013,08,23,10,54,20.10
2013,08,23,10,55,20.20
2013,08,23,10,56,20.20
2013,08,23,10,57,20.20
2013,08,23,10,58,20.30
2013,08,23,10,59,20.40
2013,08,23,11,00,20.50
2013,08,23,11,01,20.70
2013,08,23,11,02,20.80
2013,08,23,11,03,20.90
2013,08,23,11,04,20.90
2013,08,23,11,05,20.80
2013,08,23,11,06,20.80
2013,08,23,11,07,20.80
2013,08,23,11,08,20.80
2013,08,23,11,09,20.80
2013,08,23,11,10,20.80
2013,08,23,11,11,20.60
2013,08,23,11,12,20.50
2013,08,23,11,13,20.40
2013,08,23,11,14,20.30
2013,08,23,11,15,20.20
2013,08,23,11,16,20.20
2013,08,23,11,17,20.20
2013,08,23,11,18,20.20
2013,08,23,11,19,20.20
2013,08,23,11,20,20.20
2013,08,23,11,21,20.10
2013,08,23,11,22,20.10
2013,08,23,11,23,20.10
2013,08,23,11,24,20.10
2013,08,23,11,25,20.00
2013,08,23,11,26,19.90
2013,08,23,11,27,19.80
2013,08,23,11,28,19.70
2013,08,23,11,29,19.80
2013,08,23,11,30,19.80
2013,08,23,11,31,19.70
2013,08,23,11,32,19.70
2013,08,23,11,33,19.80
2013,08,23,11,34,19.90
2013,08,23,11,35,20.00
2013,08,23,11,36,20.10
2013,08,23,11,37,20.20
2013,08,23,11,38,20.20
2013,08,23,11,39,20.10
2013,08,23,11,40,20.00
2013,08,23,11,41,20.00
2013,08,23,11,42,19.80
2013,08,23,11,43,19.70
2013,08,23,11,44,19.70
2013,08,23,11,45,19.70
2013,08,23,11,46,19.70
2013,08,23,11,47,19.80
2013,08,23,11,48,19.80
2013,08,23,11,49,19.90
2013,08,23,11,50,19.90
2013,08,23,11,51,19.90
2013,08,23,11,52,19.90
2013,08,23,11,53,19.90
2013,08,23,11,54,19.90
2013,08,23,11,55,19.90
2013,08,23,11,56,19.90
2013,08,23,11,57,19.80
2013,08,23,11,58,19.80
2013,08,23,11,59,19.80
2013,08,23,12,00,19.90
2013,08,23,12,01,19.90
2013,08,23,12,02,20.00
2013,08,23,12,03,20.10
2013,08,23,12,04,20.10
2013,08,23,12,05,20.20
2013,08,23,12,06,20.10
2013,08,23,12,07,20.10
2013,08,23,12,08,20.10
2013,08,23,12,09,20.20
2013,08,23,12,10,20.20
2013,08,23,12,11,20.20
2013,08,23,12,12,20.20
2013,08,23,12,13,20.20
2013,08,23,12,14,20.20
2013,08,23,12,15,20.30
2013,08,23,12,16,20.40
2013,08,23,12,17,20.40
2013,08,23,12,18,20.50
2013,08,23,12,19,20.60
2013,08,23,12,20,20.60
2013,08,23,12,21,20.70
2013,08,23,12,22,20.70
2013,08,23,12,23,20.70
2013,08,23,12,24,20.70
2013,08,23,12,25,20.70
2013,08,23,12,26,20.70
2013,08,23,12,27,20.70
2013,08,23,12,28,20.70
2013,08,23,12,29,20.70
2013,08,23,12,30,20.60
2013,08,23,12,31,20.50
2013,08,23,12,32,20.40
2013,08,23,12,33,20.30
2013,08,23,12,34,20.30
2013,08,23,12,35,20.20
2013,08,23,12,36,20.20
2013,08,23,12,37,20.10
2013,08,23,12,38,20.10
2013,08,23,12,39,20.10
2013,08,23,12,40,20.10
2013,08,23,12,41,20.00
2013,08,23,12,42,20.00
2013,08,23,12,43,20.00
2013,08,23,12,44,20.00
2013,08,23,12,45,20.00
2013,08,23,12,46,20.00
2013,08,23,12,47,20.00
2013,08,23,12,48,20.10
2013,08,23,12,49,20.20
2013,08,23,12,50,20.30
2013,08,23,12,51,20.30
2013,08,23,12,52,20.30
2013,08,23,12,53,20.20
2013,08,23,12,54,20.10
2013,08,23,12,55,20.00
2013,08,23,12,56,20.00
2013,08,23,12,57,19.90
2013,08,23,12,58,19.90
2013,08,23,12,59,19.90
2013,08,23,13,00,20.00
2013,08,23,13,01,19.90
2013,08,23,13,02,19.90
2013,08,23,13,03,19.90
2013,08,23,13,04,19.90
2013,08,23,13,05,19.90
2013,08,23,13,06,20.00
2013,08,23,13,07,20.00
2013,08,23,13,08,20.10
2013,08,23,13,09,20.10
2013,08,23,13,10,20.20
2013,08,23,13,11,20.10
2013,08,23,13,12,20.10
2013,08,23,13,13,20.10
2013,08,23,13,14,20.10
2013,08,23,13,15,20.20
2013,08,23,13,16,20.10
2013,08,23,13,17,20.10
2013,08,23,13,18,20.10
2013,08,23,13,19,20.10
2013,08,23,13,20,20.10
2013,08,23,13,21,20.20
2013,08,23,13,22,20.20
2013,08,23,13,23,20.20
2013,08,23,13,24,20.20
2013,08,23,13,25,20.20
2013,08,23,13,26,20.20
2013,08,23,13,27,20.10
2013,08,23,13,28,20.00
2013,08,23,13,29,19.90
2013,08,23,13,30,19.80
2013,08,23,13,31,19.70
2013,08,23,13,32,19.70
2013,08,23,13,33,19.60
2013,08,23,13,34,19.60
2013,08,23,13,35,19.60
2013,08,23,13,36,19.50
2013,08,23,13,37,19.40
2013,08,23,13,38,19.30
2013,08,23,13,39,19.30
2013,08,23,13,40,19.30
2013,08,23,13,41,19.30
2013,08,23,13,42,19.30
2013,08,23,13,43,19.30
2013,08,23,13,44,19.30
2013,08,23,13,45,19.40
2013,08,23,13,46,19.40
2013,08,23,13,47,19.40
2013,08,23,13,48,19.40
2013,08,23,13,49,19.50
2013,08,23,13,50,19.60
2013,08,23,13,51,19.70
2013,08,23,13,52,19.80
2013,08,23,13,53,19.80
2013,08,23,13,54,19.90
2013,08,23,13,55,20.00
2013,08,23,13,56,20.10
2013,08,23,13,57,20.20
2013,08,23,13,58,20.30
2013,08,23,13,59,20.40
2013,08,23,14,00,20.40
2013,08,23,14,01,20.40
2013,08,23,14,02,20.50
2013,08,23,14,03,20.50
2013,08,23,14,04,20.50
2013,08,23,14,05,20.50
2013,08,23,14,06,20.60
2013,08,23,14,07,20.70
2013,08,23,14,08,20.80
2013,08,23,14,09,21.00
2013,08,23,14,10,21.10
2013,08,23,14,11,21.10
2013,08,23,14,12,21.10
2013,08,23,14,13,21.20
2013,08,23,14,14,21.30
2013,08,23,14,15,21.30
2013,08,23,14,16,21.40
2013,08,23,14,17,21.40
2013,08,23,14,18,21.50
2013,08,23,14,19,21.60
2013,08,23,14,20,21.60
2013,08,23,14,21,21.50
2013,08,23,14,22,21.40
2013,08,23,14,23,21.40
2013,08,23,14,24,21.40
2013,08,23,14,25,21.30
2013,08,23,14,26,21.40
2013,08,23,14,27,21.40
2013,08,23,14,28,21.40
2013,08,23,14,29,21.30
2013,08,23,14,30,21.30
2013,08,23,14,31,21.30
2013,08,23,14,32,21.40
2013,08,23,14,33,21.40
2013,08,23,14,34,21.30
2013,08,23,14,35,21.30
2013,08,23,14,36,21.30
2013,08,23,14,37,21.20
2013,08,23,14,38,21.20
2013,08,23,14,39,21.00
2013,08,23,14,40,21.00
2013,08,23,14,41,20.90
2013,08,23,14,42,20.90
2013,08,23,14,43,20.80
2013,08,23,14,44,20.70
2013,08,23,14,45,20.70
2013,08,23,14,46,20.60
2013,08,23,14,47,20.60
2013,08,23,14,48,20.60
2013,08,23,14,49,20.60
2013,08,23,14,50,20.60
2013,08,23,14,51,20.70
2013,08,23,14,52,20.80
2013,08,23,14,53,20.80
2013,08,23,14,54,20.90
2013,08,23,14,55,21.00
2013,08,23,14,56,21.10
2013,08,23,14,57,21.20
2013,08,23,14,58,21.30
2013,08,23,14,59,21.40
2013,08,23,15,00,21.40
2013,08,23,15,01,21.50
2013,08,23,15,02,21.50
2013,08,23,15,03,21.50
2013,08,23,15,04,21.50
2013,08,23,15,05,21.50
2013,08,23,15,06,21.60
2013,08,23,15,07,21.60
2013,08,23,15,08,21.60
2013,08,23,15,09,21.50
2013,08,23,15,10,21.40
2013,08,23,15,11,21.30
2013,08,23,15,12,21.10
2013,08,23,15,13,21.10
2013,08,23,15,14,21.00
2013,08,23,15,15,20.90
2013,08,23,15,16,21.00
2013,08,23,15,17,21.00
2013,08,23,15,18,21.10
2013,08,23,15,19,21.10
2013,08,23,15,20,21.30
2013,08,23,15,21,21.30
2013,08,23,15,22,21.40
2013,08,23,15,23,21.40
2013,08,23,15,24,21.40
2013,08,23,15,25,21.40
2013,08,23,15,26,21.50
2013,08,23,15,27,21.60
2013,08,23,15,28,21.60
2013,08,23,15,29,21.50
2013,08,23,15,30,21.40
2013,08,23,15,31,21.40
2013,08,23,15,32,21.40
2013,08,23,15,33,21.30
2013,08,23,15,34,21.20
2013,08,23,15,35,21.20
2013,08,23,15,36,21.20
2013,08,23,15,37,21.10
2013,08,23,15,38,21.10
2013,08,23,15,39,21.10
2013,08,23,15,40,21.00
2013,08,23,15,41,21.00
2013,08,23,15,42,21.00
2013,08,23,15,43,20.90
2013,08,23,15,44,21.00
2013,08,23,15,45,21.00
2013,08,23,15,46,21.00
2013,08,23,15,47,21.00
2013,08,23,15,48,20.90
2013,08,23,15,49,20.80
2013,08,23,15,50,20.80
2013,08,23,15,51,20.90
2013,08,23,15,52,20.90
2013,08,23,15,53,20.90
2013,08,23,15,54,20.90
2013,08,23,15,55,20.80
2013,08,23,15,56,20.80
2013,08,23,15,57,20.80
2013,08,23,15,58,20.80
2013,08,23,15,59,20.80
2013,08,23,16,00,20.80
2013,08,23,16,01,20.80
2013,08,23,16,02,20.80
2013,08,23,16,03,20.80
2013,08,23,16,04,20.80
2013,08,23,16,05,20.80
2013,08,23,16,06,20.80
2013,08,23,16,07,20.80
2013,08,23,16,08,20.80
2013,08,23,16,09,20.70
2013,08,23,16,10,20.70
2013,08,23,16,11,20.70
2013,08,23,16,12,20.70
2013,08,23,16,13,20.70
2013,08,23,16,14,20.70
2013,08,23,16,15,20.60
2013,08,23,16,16,20.60
2013,08,23,16,17,20.60
2013,08,23,16,18,20.50
2013,08,23,16,19,20.50
2013,08,23,16,20,20.50
2013,08,23,16,21,20.50
2013,08,23,16,22,20.50
2013,08,23,16,23,20.40
2013,08,23,16,24,20.30
2013,08,23,16,25,20.30
2013,08,23,16,26,20.20
2013,08,23,16,27,20.20
2013,08,23,16,28,20.20
2013,08,23,16,29,20.10
2013,08,23,16,30,20.10
2013,08,23,16,31,20.10
2013,08,23,16,32,20.10
2013,08,23,16,33,20.10
2013,08,23,16,34,20.00
2013,08,23,16,35,20.00
2013,08,23,16,36,19.90
2013,08,23,16,37,19.90
2013,08,23,16,38,19.90
2013,08,23,16,39,19.80
2013,08,23,16,40,19.80
2013,08,23,16,41,19.80
2013,08,23,16,42,19.80
2013,08,23,16,43,19.80
2013,08,23,16,44,19.70
2013,08,23,16,45,19.70
2013,08,23,16,46,19.70
2013,08,23,16,47,19.70
2013,08,23,16,48,19.60
2013,08,23,16,49,19.60
2013,08,23,16,50,19.60
2013,08,23,16,51,19.60
2013,08,23,16,52,19.50
2013,08,23,16,53,19.50
2013,08,23,16,54,19.40
2013,08,23,16,55,19.40
2013,08,23,16,56,19.40
2013,08,23,16,57,19.40
2013,08,23,16,58,19.30
2013,08,23,16,59,19.40
2013,08,23,17,00,19.40
2013,08,23,17,01,19.40
2013,08,23,17,02,19.40
2013,08,23,17,03,19.50
2013,08,23,17,04,19.50
2013,08,23,17,05,19.60
2013,08,23,17,06,19.60
2013,08,23,17,07,19.70
2013,08,23,17,08,19.70
2013,08,23,17,09,19.70
2013,08,23,17,10,19.70
2013,08,23,17,11,19.80
2013,08,23,17,12,19.80
2013,08,23,17,13,19.80
2013,08,23,17,14,19.90
2013,08,23,17,15,19.90
2013,08,23,17,16,19.90
2013,08,23,17,17,19.90
2013,08,23,17,18,19.90
2013,08,23,17,19,19.90
2013,08,23,17,20,19.90
2013,08,23,17,21,19.90